Theta_e
319 318 314 312 313 309 313 313 311 314 315 315 317 318 320 320 323 318 333 342 341 338 336 337 338 337 335 334 334 334 335 337 339 339 337 336 335 335 335 334 335 337 340 340 339 335 339 340 336
318 315 312 306 311 312 310 312 315 313 314 315 318 321 326 326 336 338 341 343 342 336 336 338 338 336 334 334 333 333 334 336 338 339 338 337 337 337 336 336 336 337 338 340 340 339 338 338 335
315 316 309 309 308 310 310 313 313 315 313 316 316 317 325 331 337 337 339 342 343 336 335 337 338 337 334 333 333 332 333 335 337 339 339 338 339 337 336 336 337 337 337 337 339 338 337 337 335
316 313 307 312 313 312 311 314 314 314 315 314 314 318 327 333 337 333 336 341 342 336 334 336 338 339 338 335 333 333 333 332 334 338 339 339 338 339 336 336 334 335 336 335 338 336 335 336 335
312 307 311 312 311 311 312 312 314 315 314 315 314 316 327 337 338 336 336 341 339 335 335 337 339 339 340 339 338 337 335 333 332 334 337 337 338 338 336 333 329 333 333 332 335 333 334 335 333
310 307 312 311 310 312 312 312 314 314 314 315 315 322 329 335 339 338 338 339 338 335 337 338 338 339 339 340 339 340 339 336 333 333 335 336 336 335 332 329 332 331 331 330 331 332 334 334 333
311 309 312 312 312 312 312 311 314 315 314 314 319 325 327 335 339 340 340 340 340 338 340 339 338 338 339 340 340 340 341 339 336 335 336 336 335 333 331 331 332 328 326 323 329 333 333 333 332
308 310 312 311 313 313 313 315 314 314 314 312 321 323 324 332 338 341 342 342 342 341 341 340 339 337 338 340 340 340 340 339 338 335 334 334 333 332 330 332 328 329 331 332 331 332 332 331 330
306 311 312 313 312 313 312 314 313 312 313 312 316 324 326 334 338 340 340 341 342 342 342 340 339 338 337 337 339 341 340 339 339 337 333 331 331 331 330 328 328 330 329 330 330 331 330 329 328
312 311 310 311 311 313 314 313 312 314 311 313 313 324 333 335 335 334 335 337 338 340 341 340 339 339 337 336 336 338 339 338 339 338 334 331 330 330 331 329 328 327 328 327 329 329 329 327 325
314 314 313 313 311 311 312 313 313 314 313 313 314 314 332 332 332 332 333 335 336 339 339 339 337 335 334 335 334 336 337 337 337 338 335 332 330 331 331 326 326 328 328 327 326 328 327 324 324
315 312 314 314 313 315 314 313 313 310 313 313 312 312 330 332 332 331 331 332 333 335 336 336 335 333 332 331 334 336 336 333 334 337 336 333 333 330 326 327 327 326 328 326 326 326 324 323 324
312 315 313 313 313 312 312 313 313 311 311 312 311 311 322 330 332 332 332 331 330 331 333 334 334 333 332 332 333 334 332 332 331 332 334 334 330 325 324 326 327 328 328 327 326 326 323 322 322
309 310 311 312 314 313 315 315 314 313 312 311 311 310 309 327 329 331 330 329 329 329 329 330 332 333 333 332 332 332 331 331 331 330 330 329 325 324 325 326 328 327 326 326 325 325 322 321 321
311 311 311 311 313 313 313 314 313 313 312 312 311 310 309 319 325 328 329 329 329 329 329 329 331 332 333 332 332 332 331 332 328 329 330 327 324 324 326 327 328 325 326 325 324 323 320 320 320
315 314 315 314 312 314 315 317 316 313 312 312 311 311 311 309 317 325 327 328 329 329 329 329 331 332 332 331 332 332 331 332 330 329 328 328 325 325 326 328 327 324 325 325 323 319 319 319 320
311 313 315 316 314 315 314 316 314 312 312 312 312 311 311 310 309 313 317 320 327 328 328 329 330 332 331 332 332 332 331 332 332 327 329 330 327 327 327 327 327 326 324 324 320 317 319 318 319
313 315 314 315 315 315 314 314 312 311 310 310 309 310 310 310 310 311 313 314 321 327 328 329 329 332 331 331 330 330 330 329 331 329 330 328 327 327 327 326 324 323 321 321 319 317 318 319 318
312 312 314 313 313 312 312 311 309 308 308 307 308 310 310 310 310 313 318 315 321 326 327 328 328 330 329 326 326 328 328 329 330 331 328 328 327 327 326 325 321 319 319 320 319 317 317 317 317
311 312 312 310 310 311 311 312 309 307 306 308 309 309 311 311 311 312 323 323 323 325 326 325 326 328 326 324 324 325 325 324 326 326 328 328 327 327 326 324 321 322 319 319 318 317 316 317 317
307 310 308 310 306 304 305 306 305 307 308 311 311 311 311 311 310 311 322 323 324 325 324 325 325 326 324 323 323 321 321 322 324 325 327 327 327 326 326 323 320 320 319 318 317 316 317 317 317
307 304 306 305 304 303 306 305 307 308 309 311 311 312 310 310 315 310 317 322 323 324 324 323 324 324 323 324 321 321 320 320 320 322 324 326 326 325 325 323 320 319 315 313 315 316 317 317 316
304 304 304 304 303 304 310 306 307 310 311 311 311 310 312 317 316 313 313 322 324 324 322 323 324 322 323 322 322 321 319 319 318 319 321 323 324 324 324 325 322 320 314 315 314 315 316 317 317
307 308 307 307 305 309 307 306 309 310 312 315 314 316 319 316 316 316 315 322 324 323 322 322 322 321 320 322 320 319 318 318 318 318 318 320 320 321 324 322 321 320 314 316 314 315 316 316 317
307 308 313 316 316 314 310 311 311 312 314 318 319 318 317 316 316 316 317 322 323 322 322 321 321 320 319 319 318 319 319 319 318 317 317 318 319 320 322 323 319 317 316 316 314 315 316 316 317
306 307 312 317 317 314 316 317 316 316 319 319 318 317 316 315 316 317 317 320 323 323 322 322 321 320 319 319 318 319 319 318 317 317 316 317 318 319 320 322 319 316 316 315 313 314 316 317 316
307 308 308 311 312 315 313 315 312 318 320 319 318 317 316 315 316 317 318 321 323 323 322 322 321 321 319 319 316 318 318 318 317 317 317 317 317 317 319 320 318 316 316 314 314 312 315 316 315
306 307 311 312 317 316 313 315 314 318 319 321 319 318 317 316 316 317 318 323 324 323 322 321 321 320 319 318 316 318 318 318 317 317 316 317 317 317 317 318 316 316 316 314 313 315 314 316 314
307 307 310 310 312 314 314 312 312 318 318 321 320 319 318 317 316 316 319 324 323 322 321 321 320 320 319 318 315 316 317 317 317 316 316 316 317 316 316 317 316 316 316 315 316 316 315 314 315
307 309 308 312 313 314 313 313 319 315 318 320 321 319 317 317 317 317 320 322 323 322 321 320 320 320 319 317 315 315 317 316 316 316 315 316 317 317 316 317 316 316 316 316 316 316 315 314 315
Wind_Speed
9 8 5 4 3 4 3 6 3 5 6 3 4 4 7 4 6 4 2 21 13 20 23 22 22 23 23 22 22 21 22 23 27 28 30 32 32 32 32 30 28 27 24 24 24 23 22 23 27
12 10 3 3 4 2 5 4 5 6 7 5 2 2 2 2 2 3 10 24 15 20 21 22 22 23 24 23 22 22 22 24 26 29 31 32 32 31 30 28 24 25 23 24 23 23 23 25 24
14 4 3 4 4 6 5 6 6 4 7 3 2 2 3 2 2 8 7 27 20 21 21 22 23 23 24 24 23 22 24 24 26 30 31 32 31 30 30 28 23 21 20 22 21 23 24 26 27
6 4 4 3 7 6 6 4 2 9 6 2 5 4 3 3 4 12 14 26 26 23 21 22 24 23 23 24 24 24 24 25 28 29 31 30 29 28 29 26 26 18 21 19 20 22 25 29 29
5 3 2 2 6 5 7 5 3 6 4 5 5 4 3 1 5 15 24 28 28 24 22 22 23 23 22 22 22 22 23 25 26 28 29 29 29 28 26 26 19 25 22 21 19 24 27 30 30
4 3 2 6 6 4 5 8 3 4 6 8 4 6 4 3 9 17 28 29 26 25 24 22 22 22 22 22 21 20 22 25 26 27 28 27 27 27 26 24 26 26 29 24 20 24 31 30 31
6 4 5 4 5 4 5 5 4 3 6 4 1 8 3 3 10 18 26 26 24 23 23 22 22 22 22 22 22 23 23 25 25 25 26 28 27 26 26 27 28 29 23 26 29 31 33 34 31
5 4 5 6 5 7 5 2 4 3 5 6 3 4 5 4 17 22 22 21 21 21 22 23 22 22 23 22 22 24 25 24 24 24 24 25 26 27 27 28 24 21 26 28 30 34 36 33 31
4 2 5 7 8 6 3 1 1 3 2 4 3 4 4 6 23 24 19 19 20 22 25 24 23 23 22 22 22 25 25 25 26 27 29 28 26 27 26 23 23 24 26 28 29 32 30 31 29
4 5 11 6 7 6 2 2 1 3 6 5 4 1 3 20 20 19 17 19 21 26 28 27 25 25 23 24 23 25 25 28 28 30 31 31 29 28 24 22 27 30 29 30 31 33 30 30 30
6 8 3 6 6 4 3 4 4 1 6 8 7 3 5 5 9 9 12 18 24 22 28 30 26 25 24 24 25 26 27 27 28 31 32 33 30 25 22 24 25 31 30 31 31 33 35 33 32
5 6 7 4 6 3 6 2 4 7 9 11 8 5 6 9 12 14 18 26 28 32 33 31 28 26 24 23 24 28 27 27 28 31 32 31 30 24 20 21 24 30 37 35 34 35 41 36 35
6 4 5 7 7 6 6 13 9 7 12 12 9 6 10 10 15 22 28 22 23 32 36 33 30 29 27 25 26 27 27 27 25 26 28 29 26 26 22 21 23 29 33 39 39 41 39 37 36
3 11 16 8 11 5 9 17 4 6 7 10 8 10 10 11 16 15 13 25 31 36 36 35 33 31 30 28 29 27 26 27 28 28 27 27 29 26 21 21 23 23 28 39 38 41 38 36 35
5 10 8 6 5 7 5 11 13 10 9 10 10 8 7 11 12 14 28 27 36 39 39 38 36 33 32 29 30 29 26 24 27 27 27 28 29 27 22 23 24 27 25 33 39 38 35 33 33
3 3 3 3 10 6 9 25 3 9 6 7 8 7 5 7 10 24 30 34 34 34 39 39 39 35 32 30 30 29 27 24 24 24 24 28 31 28 27 25 25 33 35 35 39 37 34 34 34
3 4 5 2 8 5 10 12 2 4 6 7 7 8 8 7 9 22 25 31 35 41 37 40 41 39 34 30 28 27 25 23 23 24 25 27 28 28 28 25 25 36 39 39 41 35 36 33 33
7 4 4 4 2 3 8 16 6 8 5 8 9 9 9 9 12 12 18 24 32 36 37 39 39 39 35 30 25 23 23 23 22 24 25 25 26 27 27 26 29 38 40 41 41 38 35 34 33
2 5 5 1 3 3 7 14 6 9 8 8 8 9 9 10 10 15 15 13 21 29 32 38 37 40 36 30 27 24 23 22 22 22 24 25 25 28 27 26 30 33 35 36 39 38 37 27 31
6 6 5 4 6 5 8 25 9 7 8 9 11 8 10 8 9 7 9 9 23 25 28 30 33 40 37 28 25 18 22 21 23 24 22 21 25 29 30 28 32 30 35 36 35 37 27 23 35
6 9 3 8 4 3 5 19 9 7 5 7 7 8 6 9 11 11 7 14 19 23 28 29 34 38 33 28 25 19 17 15 19 21 22 21 27 26 34 34 39 36 42 36 37 38 30 27 29
10 8 9 6 2 3 4 8 0 6 6 4 8 7 7 9 15 11 8 9 21 25 23 25 30 33 32 31 28 22 19 13 15 19 22 22 23 22 33 36 37 41 40 34 36 39 34 34 28
5 8 8 6 5 1 3 4 5 3 7 9 7 8 8 9 13 14 11 19 18 21 22 26 28 26 30 30 27 23 17 18 16 19 20 22 19 15 39 35 41 42 38 35 37 35 34 37 31
5 3 3 2 3 3 8 7 3 4 2 3 3 7 8 10 15 15 17 12 18 21 24 26 28 27 26 27 26 26 23 21 19 18 18 17 18 19 24 31 42 44 37 31 38 36 34 35 32
3 5 1 1 1 5 6 5 8 5 4 4 6 8 8 11 14 17 16 7 15 23 27 29 30 27 28 29 28 28 26 22 21 17 17 17 18 17 22 27 34 41 40 40 37 38 34 38 36
7 7 4 5 4 3 4 6 5 4 5 4 1 3 5 16 17 19 18 11 18 26 29 31 30 29 30 30 27 29 26 23 22 21 17 17 17 18 20 29 34 38 33 37 41 39 35 32 33
5 5 7 2 1 1 4 6 5 4 5 6 7 9 12 17 21 23 23 13 21 25 30 31 31 27 29 29 25 29 27 23 22 20 18 17 14 14 20 28 33 39 41 40 38 35 33 36 28
6 5 3 1 3 5 4 3 5 2 5 6 7 10 13 19 25 24 22 6 13 18 22 24 29 29 29 29 23 30 28 25 22 21 21 19 18 17 19 25 29 32 35 40 40 36 35 36 33
2 3 4 4 5 3 7 5 5 4 4 5 1 5 10 18 26 23 17 10 14 19 22 25 27 27 28 27 23 27 28 26 23 23 23 23 20 21 23 25 30 32 32 39 40 34 36 38 35
3 2 6 3 3 2 2 11 5 5 8 6 4 2 6 13 22 23 18 12 14 19 22 25 26 25 25 26 24 27 29 27 25 25 25 25 24 24 25 26 28 31 33 35 39 41 39 38 32
Wind_Direction
172 155 145 65 62 68 260 259 270 284 311 212 133 145 186 153 163 206 165 162 160 169 169 171 169 171 172 170 164 161 156 158 167 170 167 167 166 166 164 161 160 155 148 147 151 154 145 143 147
145 139 87 85 103 110 261 243 234 221 246 322 110 96 49 209 153 168 141 174 167 171 170 171 173 175 177 175 171 166 163 162 165 169 170 170 170 168 165 161 160 158 150 148 149 148 148 152 153
137 129 93 113 139 186 220 213 202 248 258 180 16 353 170 206 184 183 182 177 175 176 173 175 177 180 182 180 179 176 170 168 169 172 173 175 174 172 169 163 157 151 152 154 155 152 154 156 156
144 41 41 105 226 249 221 221 243 332 346 212 165 255 289 219 186 188 173 173 175 178 177 178 180 183 184 184 183 181 179 175 175 176 177 178 178 175 173 170 155 167 162 167 163 162 162 160 158
77 62 90 255 244 253 268 255 248 289 270 225 158 221 247 270 191 173 171 173 176 179 182 184 184 185 185 187 185 184 184 183 181 179 180 180 181 181 176 167 175 167 173 167 167 171 168 163 159
52 100 99 236 245 227 261 260 259 270 272 276 180 149 242 252 175 174 175 176 182 182 184 186 187 188 188 187 190 188 189 188 187 185 182 183 186 183 184 181 174 175 175 165 173 183 169 165 162
132 105 210 234 257 279 228 189 198 254 272 267 236 152 252 253 188 179 180 181 186 191 188 187 189 190 194 192 194 196 198 193 191 187 183 182 183 185 184 182 181 182 210 177 179 181 175 164 165
125 121 173 228 227 272 227 215 164 93 301 330 120 190 234 219 176 175 179 187 192 196 195 192 193 192 193 194 199 202 206 203 201 195 187 187 187 186 185 182 194 201 186 180 178 178 174 162 167
135 128 209 225 174 229 215 90 304 262 225 328 266 173 283 175 164 167 175 187 195 199 200 198 198 198 198 193 199 205 211 211 206 203 200 199 194 189 186 197 199 196 194 187 181 179 166 169 169
170 196 208 220 198 215 225 14 82 347 353 285 311 90 76 163 170 167 177 191 196 200 201 201 203 203 203 198 198 206 208 211 209 205 202 199 193 195 212 225 217 210 209 199 183 175 168 168 168
210 235 205 250 238 216 228 261 159 270 302 245 272 274 158 158 191 195 204 201 203 202 205 204 205 206 206 205 198 204 205 210 213 206 206 206 212 224 236 235 224 212 204 198 180 175 171 173 173
231 226 205 243 216 257 258 217 237 180 237 263 243 265 168 189 205 201 209 212 209 211 215 210 206 206 204 210 202 202 201 209 211 212 216 213 217 223 217 225 226 213 209 201 180 164 167 170 175
232 227 231 236 241 238 272 259 242 215 243 273 268 229 226 207 214 219 215 218 216 219 218 214 207 206 206 204 206 199 203 207 212 214 214 213 216 211 216 219 218 213 197 190 181 172 168 172 177
225 229 246 234 254 243 249 265 212 228 237 260 253 254 236 213 222 226 226 223 218 222 222 216 209 208 207 204 211 206 206 208 210 213 219 216 211 210 210 213 213 206 167 172 178 173 170 176 180
255 261 267 222 213 236 221 263 239 246 229 244 259 269 258 227 229 220 228 226 225 225 222 217 209 206 208 207 212 211 209 207 213 216 215 213 212 212 212 207 200 190 180 172 176 171 173 175 176
253 228 214 237 185 222 168 262 283 240 218 251 266 260 246 246 234 240 243 240 236 223 222 216 211 205 208 210 212 212 213 212 209 214 220 215 213 216 207 205 190 188 185 185 175 171 170 173 175
257 240 210 280 197 185 194 267 243 348 333 289 282 287 288 270 232 243 252 256 239 230 217 213 209 205 206 208 214 213 213 212 211 212 211 209 213 213 207 209 213 192 187 183 171 166 170 170 176
212 217 237 213 299 237 256 268 285 291 296 281 282 282 283 279 275 257 274 274 240 224 215 210 206 202 203 207 207 210 214 219 213 208 210 213 207 211 209 217 201 188 176 167 165 163 169 174 176
200 225 220 179 231 347 258 270 251 276 287 271 265 263 271 268 262 286 291 276 223 213 202 202 194 197 197 198 197 201 204 210 212 213 221 214 209 215 211 204 185 170 156 158 167 165 170 162 160
205 233 244 265 244 264 285 280 279 241 247 252 266 262 259 284 295 288 271 226 207 197 196 189 188 190 193 189 190 197 208 216 219 222 226 228 215 212 207 199 194 168 160 168 169 169 167 158 166
194 213 170 245 324 293 287 284 249 258 239 249 258 253 266 263 287 288 243 217 205 195 196 187 186 183 183 185 187 195 197 213 213 218 217 216 219 210 203 191 181 178 173 176 176 178 173 163 171
228 178 203 229 138 249 132 290 89 225 246 264 281 270 296 318 315 273 253 212 207 207 194 183 183 177 179 184 183 185 196 192 209 213 214 212 215 210 205 196 185 180 177 180 189 186 179 169 172
216 178 191 207 187 134 167 283 287 16 300 280 296 323 335 319 318 315 264 231 211 193 187 176 177 181 182 182 189 188 197 204 212 212 221 216 206 212 196 207 193 189 180 189 186 184 182 176 173
175 149 155 80 124 259 180 185 203 199 200 336 342 346 338 328 329 322 317 228 188 179 175 179 175 183 188 184 189 195 194 190 198 201 205 210 219 221 198 195 193 192 183 194 184 183 184 178 177
157 95 198 233 198 236 189 180 259 283 332 63 12 344 337 325 325 324 330 221 185 185 177 183 179 177 187 188 196 202 203 201 210 201 194 201 213 218 214 200 190 190 185 184 185 185 185 183 183
185 164 172 200 195 240 165 234 247 135 102 75 285 270 324 350 336 328 319 263 204 194 180 181 180 180 180 188 201 202 201 199 201 209 194 199 205 212 213 209 198 190 187 181 185 193 183 187 191
193 182 188 261 206 322 219 282 290 148 22 32 10 359 348 347 338 327 323 291 204 196 188 181 183 181 180 187 193 199 199 196 197 200 203 201 203 213 205 194 189 188 188 181 183 183 190 194 195
189 173 100 63 208 242 238 248 235 344 336 347 355 357 343 347 338 323 323 264 200 184 185 192 187 182 178 184 190 195 198 198 197 196 190 187 190 199 194 185 175 179 179 179 177 185 187 191 200
104 225 202 168 161 239 282 261 200 172 225 243 345 3 349 354 332 314 318 265 182 177 182 188 188 182 176 179 189 192 197 199 197 200 197 191 184 189 181 175 173 172 171 176 179 174 178 190 203
162 212 174 169 208 221 243 268 170 203 219 192 188 129 348 13 319 305 311 263 181 179 179 189 186 181 178 177 188 191 197 198 196 201 201 199 188 185 185 173 172 174 174 172 174 183 189 192 199